Погода в Пелагиаде

Россия / Ставропольский край     45°12′09″N   42°00′54″E
темп.,
°C
ветер,
м/с
пор.,
м/с
влажн.,
%
обл.,
%
осадки,
мм/ч
давл.,
гПа
погр.,
м
9 мая, вс
вс900:00+14ююв4773100 0.0 1009115
03:00+15юз3571100 0.1 100996
06:00+12зсз41090100 0.6 1010287
09:00+13зсз61193100 1.1 1010615
12:00+11зсз91196100 6.7 1012659
15:00+7зсз101394100 11.3 10161069
18:00+7зсз71194100 3.2 1019964
21:00+6з6129453 3.4 1021633
10 мая, пн
пн1000:00+5з6139374 0.4 1022427
03:00+5з589496 0.6 1022467
06:00+4зюз6109656 0.2 1022334
09:00+8зсз811695 0.5 10211394
12:00+10з9126084 0.8 10201877
15:00+10з9126699 1.5 10191780
18:00+7зсз81482100 0.9 10191320
21:00+6з91585100 0.9 1019888
11 мая, вт
вт1100:00+6зюз71585100 0.0 1017963
03:00+7зюз81671100 0.1 10161316
06:00+6ююз71581100 1.0 10171138
09:00+8ююв61080100 1.7 1017913
12:00+12ююв7965100 0.1 10161250
15:00+12юв5763100 0.1 10171265
18:00+12вюв4769100 0.2 1017362
21:00+8ссв118776 0.3 101813
12 мая, ср
ср1200:00+5с249967 0.0 101895
03:00+6всв119596 0.0 101845
06:00+7вюв128774 0.0 101873
09:00+13вюв45685 0.0 1018646
12:00+16вюв565923 0.0 10171196
15:00+18вюв6758100 0.0 10171309
18:00+17вюв58710 0.0 1016422
21:00+12вюв41285100 0.0 1016218
13 мая, чт
чт1300:00+11вюв412850 0.0 1016232
03:00+10вюв513860 0.0 1015234
06:00+12юв514840 0.0 1015310
09:00+17вюв811705 0.0 1015547
12:00+21вюв78605 0.0 1015819
15:00+23вюв785756 0.0 1014925
18:00+20вюв7127167 0.0 1014461
21:00+18юв71574100 0.0 1014394